Location: Brooks Farm Pond
(32.9618°N, 86.0700°W)
Time: 21:29:49
(UTC+00:00)

IRS-1C Rocket - Pass Details

Date: 29 October 2020
Orbit: 801 x 805 km, 99.0° (Epoch: 30 November)

Event Time Altitude Azimuth Distance (km) Brightness Sun altitude
Rises 23:28:57 0° 146° (SSE) 3,299 7.1 -7.7°
Reaches altitude 10° 23:31:23 10° 139° (SE) 2,373 6.3 -8.2°
Maximum altitude 23:36:15 40° 71° (ENE) 1,170 4.5 -9.2°
Drops below altitude 10° 23:41:08 10° 3° (N) 2,388 6.4 -10.2°
Sets 23:43:35 0° 356° (N) 3,323 7.2 -10.7°
